Location: Newark
(15.3000°N, 61.3833°W)
Time: 07:53:36
(UTC+00:00)

LightSail 2 - Visible Passes

Search period start: 14 October 2019 00:00
Search period end: 24 October 2019 00:00
Orbit: 707 x 723 km, 24.0° (Epoch: 13 October)

Date Brightness Start Highest point End Pass type
(mag) Time Alt. Az. Time Alt. Az. Time Alt. Az.
14 Oct 7.1 00:00:01 10° WNW 00:02:28 23° NW 00:02:28 23° NW visible
14 Oct 6.3 23:02:19 10° WNW 23:06:54 31° N 23:08:28 26° NNE visible
15 Oct 6.4 22:04:34 10° WNW 22:09:11 32° N 22:13:49 10° ENE visible
15 Oct 6.8 23:50:38 10° WNW 23:53:27 26° NNW 23:53:27 26° NNW visible
16 Oct 6.3 22:53:01 10° WNW 22:57:37 31° N 22:59:27 25° NE visible
17 Oct 6.4 23:41:04 10° WNW 23:44:28 33° NNW 23:44:28 33° NNW visible
18 Oct 6.0 22:43:31 10° WNW 22:48:17 36° N 22:50:30 25° NE visible
19 Oct 8.0 00:28:57 10° WNW 00:29:30 13° WNW 00:29:30 13° WNW visible
19 Oct 5.7 23:31:24 10° WNW 23:35:35 50° NNW 23:35:35 50° NNW visible
20 Oct 5.6 22:33:52 10° WNW 22:38:50 47° NNE 22:41:42 23° ENE visible
21 Oct 7.6 00:19:22 10° WNW 00:20:43 18° WNW 00:20:43 18° WNW visible
21 Oct 5.0 23:21:43 10° WNW 23:26:54 89° NW 23:26:54 89° NW visible
22 Oct 5.2 22:24:08 10° WNW 22:29:16 69° NNE 22:33:09 18° E visible
23 Oct 7.3 00:09:58 10° W 00:12:10 23° WSW 00:12:10 23° WSW visible
23 Oct 5.6 23:12:09 10° W 23:17:12 55° SSW 23:18:30 43° SSE visible
